Location: Cran-Gévrier
(45.9039°N, 6.1012°E)
Time: 10:22:12
(UTC+00:00)

BREEZE-M DEB (TANK) - Pass Details

Date: 09 February 2023
Orbit: 761 x 22168 km, 51.4° (Epoch: 20 March)

Event Time Altitude Azimuth Distance (km) Brightness Sun altitude
Rises 20:15:28 0° 241° (WSW) 10,641 9.4 -35.5°
Reaches altitude 10° 20:25:32 10° 243° (WSW) 7,021 8.3 -37.1°
Enters shadow 20:38:59 64° 256° (WSW) 1,570 4.5 -39.3°
